[[{"header":{"parameterUnit":"m.s-1","parameterCategory":1,"la1":30.2991,"la2":30.254,"lo1":-89.0895,"lo2":-89.0444,"dy":0.0017,"dx":0.0017,"nx":28,"ny":28,"refTime":"2026-02-12T03:00:00:Z","depth":0,"parameterNumber":2,"parameterNumberName":"U-component_of_WINDS"},"data":[0,0,0,0,0,0,0,0,0,0,0,0,0,0,0,0,0,0,0,0,0,0,0,0,0,0,0,0,0,0,0,0,0,0,0,0,0,0,0,0,0,0,0,0,0,0,0,0,0,0,0,0,0,0,0,0,0,0,-1.6488,-1.6489,0,-1.6568,-1.6569,-1.657,-1.6555,-1.6553,-1.6552,-1.6551,-1.6634,-1.6637,-1.6641,0,0,0,0,0,0,0,0,0,0,0,0,0,-1.6325,-1.6328,-1.6488,-1.6489,-1.649,-1.6568,-1.6569,-1.657,-1.6555,-1.6553,-1.6552,-1.655,-1.6633,-1.6637,-1.6641,0,0,0,0,0,0,0,0,0,0,0,0,0,-1.64,-1.6329,-1.6488,-1.6492,-1.6493,-1.6568,-1.6569,-1.6571,-1.6555,-1.6553,-1.6551,-1.6549,-1.6631,-1.6636,-1.6642,-1.6718,0,0,-1.6658,-1.666,0,0,0,0,0,0,0,0,-1.6395,-1.6406,-1.649,-1.6492,-1.6493,-1.6549,-1.6542,-1.662,-1.6556,-1.6532,-1.655,-1.6548,-1.6607,-1.6615,-1.6634,-1.6722,-1.6725,-1.6658,-1.6662,-1.6664,-1.6665,0,0,0,0,0,0,0,-1.639,-1.6402,-1.652,-1.6492,-1.6493,-1.6491,-1.6499,-1.6557,-1.6581,-1.6534,-1.6533,-1.6542,-1.6608,-1.6629,-1.6636,-1.6727,-1.6658,-1.6663,-1.6666,-1.6668,-1.6884,-1.6886,0,0,0,0,0,0,-1.6383,-1.6398,-1.6517,-1.6522,-1.6438,-1.6495,-1.6505,-1.6534,-1.658,-1.6585,-1.6544,-1.6541,-1.6621,-1.663,-1.6639,-1.6733,-1.6664,-1.6669,-1.6672,-1.6881,-1.6884,-1.6887,0,0,0,0,0,0,-1.638,-1.6394,-1.6514,-1.646,-1.6475,-1.6501,-1.6533,-1.6536,-1.6558,-1.6588,-1.6592,-1.6562,-1.662,-1.6632,-1.6699,-1.6735,-1.6671,-1.6676,-1.6878,-1.6882,-1.6886,-1.692,0,0,0,0,0,0,-1.6375,-1.6393,-1.6421,-1.6461,-1.6478,-1.6572,-1.6535,-1.6539,-1.6567,-1.6564,-1.6605,-1.661,-1.6619,-1.6691,-1.6704,-1.6742,-1.668,-1.6875,-1.688,-1.6884,-1.6916,-1.6924,-1.6932,0,0,0,0,0,-1.637,-1.6428,-1.6423,-1.6437,-1.6514,-1.6574,-1.6584,-1.6592,-1.657,-1.6599,-1.6619,-1.6609,-1.673,-1.6698,-1.6713,-1.6752,-1.6873,-1.6879,-1.6884,-1.6912,-1.6923,-1.6932,0,0,0,0,0,0,-1.6391,-1.6433,-1.6428,-1.65,-1.6534,-1.6571,-1.6608,-1.6603,-1.6644,-1.6639,-1.6649,-1.6659,-1.6727,-1.6747,-1.6711,-1.683,-1.6798,-1.6807,-1.6814,-1.6825,-1.6833,-1.6826,-1.6685,0,0,0,0,0,-1.6405,-1.6449,-1.6483,-1.6544,-1.6561,-1.6582,-1.6608,-1.6612,-1.6648,-1.6662,-1.6686,-1.6722,-1.6768,-1.6797,-1.6841,-1.6919,-1.6929,-1.6954,-1.6962,-1.6969,-1.6976,-1.702,-1.7032,-1.6906,-1.6905,-1.6905,0,0,-1.6433,-1.6461,-1.6488,-1.6549,-1.6576,-1.6623,-1.6594,-1.6644,-1.668,-1.6669,-1.6734,-1.6755,-1.6795,-1.6868,-1.6901,-1.6886,-1.7013,-1.6976,-1.6981,-1.6984,-1.7027,-1.7039,-1.705,-1.6909,-1.6909,-1.6908,0,0,-1.6507,-1.6533,-1.6586,-1.6614,-1.6655,-1.6669,-1.6682,-1.6721,-1.6734,-1.6799,-1.6793,-1.6836,-1.6915,-1.6944,-1.6969,-1.7059,-1.7051,-1.7073,-1.7115,-1.7158,-1.7168,-1.7177,-1.721,-1.7221,-1.708,-1.7081,-1.7081,0,-1.6536,-1.6606,-1.6615,-1.6667,-1.6694,-1.6688,-1.6744,-1.677,-1.6824,-1.6843,-1.6826,-1.6926,-1.6952,-1.7033,-1.7055,-1.7076,-1.7092,-1.7067,-1.7166,-1.7175,-1.7183,-1.7215,-1.7227,-1.7083,-1.7083,-1.7082,-1.7082,0,-1.664,-1.6689,-1.6728,-1.678,-1.6812,-1.6866,-1.6884,-1.6916,-1.6919,-1.6935,-1.7003,-1.7035,-1.7086,-1.7106,-1.7109,-1.7189,-1.7178,-1.7163,-1.7131,-1.7198,-1.7227,-1.7239,-1.7086,-1.7085,-1.7085,-1.7084,0,0,-1.6728,-1.6786,-1.68,-1.6824,-1.687,-1.6909,-1.6963,-1.7013,-1.7041,-1.7079,-1.7126,-1.7194,-1.7182,-1.721,-1.7216,-1.7255,-1.7325,-1.7235,-1.7237,-1.7251,-1.7416,-1.7426,-1.744,-1.7321,-1.7323,-1.7325,-1.7413,0,-1.6806,-1.6901,-1.6912,-1.6997,-1.7043,-1.704,-1.7088,-1.7122,-1.714,-1.7183,-1.7203,-1.7251,-1.723,-1.7248,-1.7286,-1.7308,-1.7358,-1.7302,-1.7365,-1.7367,-1.7354,-1.7455,-1.7466,-1.7547,-1.7424,-1.7426,-1.7428,0,-1.691,-1.6951,-1.7041,-1.7082,-1.7102,-1.7145,-1.7193,-1.7234,-1.7273,-1.7284,-1.7318,-1.732,-1.7378,-1.7345,-1.7426,-1.7387,-1.7415,-1.743,-1.7433,-1.7439,-1.7401,-1.7463,-1.7573,-1.7585,-1.7446,-1.7445,-1.7443,0,-1.6965,-1.7043,-1.7107,-1.7128,-1.7178,-1.7209,-1.7231,-1.7269,-1.7299,-1.7342,-1.7362,-1.7411,-1.7438,-1.7477,-1.7493,-1.7468,-1.7574,-1.7542,-1.7585,-1.7585,-1.7606,-1.7604,-1.7721,-1.7625,-1.7624,-1.7624,-1.7624,0,-1.7051,-1.7106,-1.7133,-1.7172,-1.7235,-1.7248,-1.731,-1.7332,-1.7366,-1.741,-1.7411,-1.7454,-1.7473,-1.7518,-1.7532,-1.7597,-1.761,-1.762,-1.7623,-1.762,-1.7619,-1.7637,-1.7631,-1.7627,-1.7627,-1.7626,-1.7625,0,-1.7122,-1.7142,-1.7212,-1.7255,-1.7267,-1.7311,-1.7348,-1.7387,-1.7406,-1.7463,-1.7477,-1.7506,-1.756,-1.7581,-1.7646,-1.7656,-1.7732,-1.773,-1.7718,-1.7719,-1.7761,-1.7756,-1.7893,-1.7912,-1.7803,-1.7804,-1.7805,0,-1.7175,-1.7217,-1.7265,-1.7295,-1.7319,-1.7367,-1.7398,-1.7414,-1.7447,-1.7498,-1.7531,-1.7585,-1.7629,-1.7716,-1.7744,-1.7795,-1.7795,-1.7839,-1.7802,-1.7798,-1.7795,-1.7792,-1.7797,-1.7845,-1.7846,-1.7847,-1.7848,0,-1.7267,-1.7275,-1.732,-1.737,-1.7407,-1.7447,-1.7485,-1.751,-1.7533,-1.757,-1.7625,-1.766,-1.7728,-1.7782,-1.7835,-1.786,-1.7859,-1.786,-1.7873,-1.7869,-1.786,-1.7866,-1.7736,-1.7856,-1.7855,-1.7855,-1.7854,-1.7854,-1.733,-1.7369,-1.7409,-1.7459,-1.749,-1.7527,-1.7566,-1.7591,-1.7637,-1.7693,-1.7701,-1.7761,-1.7803,-1.7874,-1.7902,-1.795,-1.7938,-1.7956,-1.7961,-1.7965,-1.7968,-1.7854,-1.7959,-1.7959,-1.7959,-1.7959,-1.7959,0,-1.7422,-1.7449,-1.7495,-1.755,-1.759,-1.7586,-1.7629,-1.7664,-1.7716,-1.7755,-1.7799,-1.7864,-1.7917,-1.7951,-1.8005,-1.8037,-1.8038,-1.8051,-1.8048,-1.8054,-1.7975,-1.7959,-1.8049,-1.8049,-1.8049,-1.8049,-1.8049,-1.8049,-1.7475,-1.754,-1.7554,-1.7635,-1.7661,-1.772,-1.7745,-1.778,-1.7811,-1.7884,-1.7928,-1.7949,-1.7987,-1.8044,-1.8094,-1.8103,-1.8123,-1.8136,-1.8144,-1.8069,-1.806,-1.8051,-1.8035,-1.8141,-1.8141,-1.8219,-1.822,-1.8221]},{"header":{"parameterUnit":"m.s-1","parameterCategory":1,"la1":30.2991,"la2":30.254,"lo1":-89.0895,"lo2":-89.0444,"dy":0.0017,"dx":0.0017,"nx":28,"ny":28,"refTime":"2026-02-12T03:00:00:Z","depth":0,"parameterNumber":3,"parameterNumberName":"V-component_of_WINDS"},"data":[0,0,0,0,0,0,0,0,0,0,0,0,0,0,0,0,0,0,0,0,0,0,0,0,0,0,0,0,0,0,0,0,0,0,0,0,0,0,0,0,0,0,0,0,0,0,0,0,0,0,0,0,0,0,0,0,0,0,1.9647,1.9647,0,1.9613,1.9613,1.9613,1.9624,1.9624,1.9625,1.9626,1.9588,1.9586,1.9584,0,0,0,0,0,0,0,0,0,0,0,0,0,1.9718,1.9717,1.9647,1.9647,1.9646,1.9613,1.9613,1.9613,1.9624,1.9625,1.9625,1.9626,1.9588,1.9586,1.9584,0,0,0,0,0,0,0,0,0,0,0,0,0,1.9686,1.9717,1.9647,1.9648,1.9648,1.9614,1.9613,1.9612,1.9623,1.9625,1.9626,1.9627,1.9589,1.9586,1.9584,1.9546,0,0,1.9576,1.9575,0,0,0,0,0,0,0,0,1.9688,1.9684,1.9648,1.9648,1.9647,1.9624,1.9624,1.959,1.9623,1.9632,1.9626,1.9627,1.9599,1.9595,1.9586,1.9544,1.9542,1.9576,1.9574,1.9573,1.9572,0,0,0,0,0,0,0,1.969,1.9685,1.9634,1.9648,1.9647,1.9649,1.9646,1.9618,1.961,1.9632,1.9633,1.9629,1.9599,1.9589,1.9586,1.9542,1.9576,1.9574,1.9572,1.9571,1.9467,1.9466,0,0,0,0,0,0,1.9693,1.9687,1.9635,1.9633,1.9671,1.9647,1.9643,1.963,1.961,1.9608,1.9628,1.9629,1.9593,1.9589,1.9584,1.9538,1.9573,1.9571,1.9569,1.9468,1.9467,1.9465,0,0,0,0,0,0,1.9695,1.9688,1.9636,1.966,1.9654,1.9645,1.963,1.9629,1.9619,1.9607,1.9605,1.9619,1.9593,1.9588,1.9556,1.9537,1.957,1.9567,1.947,1.9468,1.9466,1.9446,0,0,0,0,0,0,1.9697,1.9689,1.9675,1.966,1.9652,1.9609,1.9629,1.9628,1.9615,1.9617,1.9599,1.9597,1.9594,1.9559,1.9553,1.9534,1.9565,1.9471,1.9469,1.9467,1.9448,1.9444,1.944,0,0,0,0,0,1.9699,1.967,1.9674,1.9668,1.9635,1.9608,1.9603,1.9602,1.9614,1.9599,1.9592,1.9597,1.9541,1.9556,1.9549,1.9529,1.9472,1.9469,1.9467,1.945,1.9445,1.944,0,0,0,0,0,0,1.9681,1.9667,1.9672,1.9637,1.9624,1.961,1.9591,1.9596,1.9577,1.958,1.9578,1.9573,1.954,1.9532,1.9549,1.9492,1.9508,1.9504,1.9498,1.9493,1.9489,1.9491,1.9563,0,0,0,0,0,1.9673,1.9653,1.9642,1.9612,1.9606,1.96,1.9588,1.9588,1.9573,1.9567,1.9557,1.9542,1.9521,1.9506,1.9486,1.9448,1.9444,1.9431,1.9427,1.9423,1.9419,1.9398,1.9392,1.9456,1.9456,1.9456,0,0,1.9656,1.9646,1.9634,1.9608,1.9598,1.9577,1.9594,1.9571,1.9555,1.9563,1.9532,1.9525,1.9507,1.9472,1.9456,1.9464,1.9401,1.942,1.9417,1.9415,1.9395,1.9389,1.9383,1.9455,1.9455,1.9455,0,0,1.9614,1.9605,1.9579,1.9569,1.9554,1.955,1.9544,1.953,1.9525,1.9495,1.9501,1.9482,1.9445,1.9433,1.9422,1.9377,1.9382,1.9371,1.9348,1.9328,1.9323,1.9318,1.9302,1.9296,1.9367,1.9367,1.9367,0,1.9594,1.9563,1.9565,1.9541,1.953,1.9539,1.9512,1.9502,1.948,1.9472,1.9482,1.9437,1.9426,1.9388,1.9377,1.9368,1.9361,1.9372,1.9324,1.9319,1.9315,1.9299,1.9293,1.9366,1.9366,1.9366,1.9366,0,1.954,1.9518,1.9499,1.948,1.9467,1.9442,1.9439,1.9425,1.9427,1.9422,1.9391,1.9379,1.9357,1.9348,1.9349,1.931,1.9316,1.9325,1.9341,1.9308,1.9293,1.9287,1.9364,1.9364,1.9365,1.9365,0,0,1.9483,1.9467,1.9459,1.9451,1.9436,1.9419,1.9395,1.9374,1.9362,1.9348,1.9326,1.9297,1.9305,1.9293,1.9293,1.9275,1.924,1.9286,1.9286,1.9277,1.9196,1.9189,1.9182,1.9244,1.9243,1.9242,1.9197,0,1.9439,1.9397,1.9399,1.936,1.934,1.9349,1.9328,1.9315,1.9311,1.9293,1.9288,1.9266,1.928,1.9272,1.9255,1.9248,1.9224,1.9252,1.9223,1.9222,1.9226,1.9174,1.9166,1.9124,1.9192,1.9191,1.919,0,1.9382,1.9367,1.9326,1.9315,1.9307,1.9287,1.9269,1.9253,1.9239,1.9237,1.9224,1.9227,1.9202,1.9221,1.9185,1.9204,1.9193,1.9188,1.9186,1.9182,1.9203,1.9167,1.9111,1.9104,1.9181,1.9182,1.9182,0,1.9344,1.9313,1.9285,1.9278,1.9264,1.9251,1.9244,1.9232,1.922,1.9204,1.9196,1.9177,1.9166,1.9151,1.9149,1.9163,1.9113,1.9132,1.911,1.911,1.9097,1.9098,1.9037,1.9092,1.9092,1.9093,1.9093,0,1.9294,1.9268,1.9268,1.925,1.9222,1.9224,1.9196,1.9191,1.918,1.9161,1.9168,1.915,1.9149,1.913,1.9128,1.9099,1.9094,1.9091,1.909,1.9089,1.909,1.9081,1.9083,1.9091,1.9091,1.9092,1.9092,0,1.9245,1.9245,1.9214,1.9205,1.9202,1.9181,1.9172,1.9155,1.9153,1.9129,1.9123,1.9118,1.9096,1.9093,1.9067,1.9066,1.9031,1.9034,1.9035,1.9035,1.9013,1.9015,1.8943,1.8934,1.8997,1.8996,1.8995,0,1.9213,1.9194,1.9183,1.9171,1.9164,1.9146,1.9134,1.9136,1.9123,1.9108,1.9092,1.9072,1.9055,1.902,1.9013,1.8994,1.8996,1.8972,1.8993,1.8993,1.8994,1.8995,1.8993,1.8968,1.8967,1.8966,1.8966,0,1.9155,1.9156,1.914,1.9124,1.911,1.9097,1.9085,1.9075,1.9075,1.9061,1.904,1.9027,1.9002,1.8981,1.8962,1.8954,1.8959,1.896,1.8954,1.8952,1.8953,1.8951,1.9023,1.8961,1.8961,1.8962,1.8962,1.8962,1.9113,1.9096,1.9087,1.9068,1.906,1.9049,1.9033,1.9029,1.9012,1.8992,1.8994,1.8971,1.8958,1.8934,1.8925,1.8906,1.8913,1.8904,1.8902,1.8899,1.8897,1.8958,1.8903,1.8903,1.8903,1.8903,1.8903,0,1.9055,1.9049,1.9033,1.9017,1.9002,1.9011,1.8998,1.8985,1.8965,1.8954,1.8939,1.8914,1.8895,1.8887,1.8868,1.8854,1.8856,1.8849,1.8849,1.8847,1.8892,1.8899,1.8847,1.8847,1.8847,1.8848,1.8848,1.8848,1.9023,1.8996,1.8996,1.8964,1.8959,1.8937,1.8929,1.8919,1.891,1.8883,1.8868,1.8864,1.8854,1.8834,1.8816,1.8814,1.8806,1.8798,1.8797,1.8838,1.8844,1.8849,1.8856,1.8796,1.8796,1.8754,1.8753,1.8753]}]]